Location: ??????????
(44.2167°N, 135.5333°E)
Time: 15:20:28
(UTC+00:00)

ASTEX 1 - Pass Details

Date: 15 June 2025
Orbit: 712 x 736 km, 92.7° (Epoch: 16 July)

Event Time Altitude Azimuth Distance (km) Brightness Sun altitude
Rises 14:27:06 0° 357° (N) 3,175 8.2 -22.1°
Reaches altitude 10° 14:29:32 10° 350° (N) 2,246 7.1 -22.1°
Maximum altitude 14:34:04 37° 284° (WNW) 1,128 4.5 -22.2°
Enters shadow 14:35:57 27° 241° (WSW) 1,383 4.6 -22.3°
